Location: USNO
(38.9210°N, 77.0670°W)
Time: 05:27:38
(UTC-04:00)

Envisat - Visible Passes

Search period start: 21 May 2022 00:00
Search period end: 31 May 2022 00:00
Orbit: 764 x 765 km, 98.2° (Epoch: 20 May)

Date Brightness Start Highest point End Pass type
(mag) Time Alt. Az. Time Alt. Az. Time Alt. Az.
22 May 4.8 05:02:07 10° NE 05:06:36 31° E 05:11:04 10° SSE visible
23 May 5.7 04:26:55 10° ENE 04:29:22 13° E 04:31:49 10° ESE visible
25 May 5.2 04:50:41 10° NE 04:54:47 24° E 04:58:51 10° SSE visible
27 May 4.3 05:15:16 10° NNE 05:20:06 42° E 05:24:53 10° S visible
28 May 5.5 04:39:23 10° NE 04:42:56 19° E 04:46:27 10° SE visible
30 May 4.7 05:03:42 10° NNE 05:08:17 33° E 05:12:49 10° SSE visible
